Regional Weather Roundup
Issued by NWS

Home | Current Version | Previous Version | Graphics & Text | Print | Product List | Glossary On
Versions: 1 2 3 4 5 6 7 8 9 10 11 12 13 14 15 16 17 18 19 20 21 22 23 24 25 26 27 28
000
ASUS45 KBOI 021510
RWRID

IDAHO REGIONAL WEATHER ROUNDUP
NATIONAL WEATHER SERVICE BOISE ID
900 AM MDT MON MAY 02 2016

NOTE: "FAIR" INDICATES FEW OR NO CLOUDS BELOW 12000 FEET
WITH NO SIGNIFICANT WEATHER AND/OR OBSTRUCTIONS TO VISIBILITY

IDZ012-014-021600-
SOUTHWEST IDAHO


CITY           SKY/WX    TMP DP  RH WIND       PRES   REMARKS
BOISE          SUNNY     57  36  45 SE13      30.17R
CALDWELL       SUNNY     55  39  54 S3        30.17R
MOUNTAIN HOME  SUNNY     50  33  51 SE14      30.19R
$$

IDZ016-017-021600-
SOUTHCENTRAL IDAHO


CITY           SKY/WX    TMP DP  RH WIND       PRES   REMARKS
BURLEY         SUNNY     47  36  65 CALM      30.20R
JEROME         SUNNY     48  33  56 E12       30.21R
TWIN FALLS     SUNNY     52  33  48 S5        30.20R
$$

IDZ019>023-021600-
SOUTHEAST IDAHO


CITY           SKY/WX    TMP DP  RH WIND       PRES   REMARKS
IDAHO FALLS    SUNNY     48  26  42 N7        30.26S
POCATELLO      SUNNY     50  27  40 N3        30.25R
REXBURG        SUNNY     44  27  51 VRB3      30.27S
$$

IDZ006-010-011-018-031-032-021600-
CENTRAL IDAHO MOUNTAINS


CITY           SKY/WX    TMP DP  RH WIND       PRES   REMARKS
MCCALL         SUNNY     45  36  70 CALM      30.20R
HAILEY         SUNNY     45  28  53 NW9       30.26R
STANLEY          N/A     37  26  64 CALM      30.29R
SALMON         SUNNY     43  32  65 NW3       30.25S
CHALLIS        SUNNY     45  27  49 CALM      30.25R
$$

IDZ002-004-006-007-026-021600-
NORTHERN IDAHO


CITY           SKY/WX    TMP DP  RH WIND       PRES   REMARKS
LEWISTON       SUNNY     56  47  71 N5        30.12R
LOWELL           N/A     47  42  83 N3        30.20F
COEUR D`ALENE  SUNNY     55  41  58 E9        30.12S
MULLAN PASS    SUNNY     48  30  49 SE8       30.23R
$$




USA.gov is the U.S. government's official web portal to all federal, state and local government web resources and services.